ONEWEB-0015, 61594

Orbit data source: Space-Track

ONEWEB-0015, 61594 is a payload satellite owned by Eut. One Web (UK) in LEO that was launched on Sun, 20 Oct 2024 UTC via an FALCON 9 launch vehicle from the Air Force Western Test Range (AFWTR). Payload-class satellites include a variety of spacecraft equipped with specific instruments for various scientific and technological missions. These include communications satellites like Starlink; space stations such as the ISS; scientific satellites like the Hubble; Earth observation satellites from companies like Planet Labs, Umbra, and HawkEye 360; GPS; miniature CubeSats for education and research; and military/defense satellites.

Loading next visibility...
Identifier
61594, 2024-188A
Orbit
LEO
Country
Flag of UKUK
Related business
Manufacturer
One Web
Mission
Operational Commercial Communications
Bus & Motor
ARROW, Unknown motor
Mass
148 kg wet, ~140 kg dry
Launch date (UTC)
2024-10-20 (2 years ago)
Launch vehicle
FALCON 9
Launch site
Air Force Western Test Range (AFWTR)
Object type
Payload
Rocket body
Debris
Shape & HBR
Trap Box + 2 Pan, 6.7 m
Radar Cross Section
3.464 m², Large (>1 m²)

Expand to show TLE details & history
Last TLE update: 17 hours ago

TLE from 17 hours ago
0 ONEWEB-0015
1 61594U 24188A   26207.98378829  .00000500  00000-0  13750-2 0  9992
2 61594  87.8894  13.1680 0001258  86.9392 273.1879 13.11418163 89679
Epoch: 2026-07-26T23:36Z
TLE epoch observation values (Epoch: 2026-07-26T23:36:39.308Z)
Latitude
-0.0001°
Longitude
74.33033°
Altitude
1,220.514 km
Speed
7.244 km/s
True Right ascension
00h 52m 40s
True Declination
0° 00' 00"
Sunlit
Object was in daylight at epoch
Visualization orbit readout
Latitude
Unknown
Longitude
Unknown
Altitude
Unknown
Speed
Unknown
Apparent Right ascension
Unknown
Apparent Declination
Unknown
Sunlit
N/A
Visualization observer readout
Local Sidereal Time
05:39:42
Azimuth
Unknown
Elevation
Unknown
Doppler factor
Unknown
Orbital elements
Apogee altitude
1,215.751 km
Perigee altitude
1,213.841 km
Semi-major axis
7,592.933 km
Eccentricity
0.00013
Inclination
87.8894°
RAAN
13.168°
Arg. of periapsis
86.9392°
True anomaly
273.17351°
Mean anomaly
273.1879°
Eccentric anomaly
273.1807°
Mean motion
3.28042 °/min
Orbital period
109.74 mins
BSTAR
0.001375
Loading maneuver chart data...
Computing Atmospheric mass density...
Loading historical data...
Loading historical data...
Loading historical data...
Loading historical data...
Loading historical data...
Loading historical data...
Loading historical data...

Documentation

Showing up to 5 results
|